This is the latest recevied weather packets stored in our database for station/object KC3ELT-10. If no packets are shown the sender has not sent any weather packets the latest 1 day(s).
| Time | Temp. | Humidity | Pressure | Rain* | Wind** | Luminosity | Snow |
|---|---|---|---|---|---|---|---|
| 1778072279 | 16.67° C | 78% | 1002.9 hPa | 0 mm | 1.34 m/s, 208° | - | - |
| 1778071979 | 16.67° C | 77% | 1002.9 hPa | 0 mm | 4.02 m/s, 197° | - | - |
| 1778071679 | 16.67° C | 77% | 1002.9 hPa | 0 mm | 2.24 m/s, 222° | - | - |
| 1778071379 | 16.67° C | 77% | 1002.8 hPa | 0 mm | 0.89 m/s, 220° | - | - |
| 1778071079 | 16.67° C | 77% | 1002.8 hPa | 0 mm | 2.24 m/s, 190° | - | - |
| 1778070779 | 16.67° C | 77% | 1002.8 hPa | 0 mm | 3.13 m/s, 204° | - | - |
| 1778070479 | 16.67° C | 77% | 1002.7 hPa | 0 mm | 2.68 m/s, 250° | - | - |
| 1778070179 | 16.67° C | 77% | 1002.7 hPa | 0 mm | 2.68 m/s, 206° | - | - |
| 1778069879 | 16.67° C | 77% | 1002.7 hPa | 0 mm | 0.45 m/s, 182° | - | - |
| 1778069596 | 16.67° C | 77% | 1002.5 hPa | 0 mm | 0.89 m/s, 136° | - | - |
| 1778069279 | 16.67° C | 77% | 1002.5 hPa | 0 mm | 1.79 m/s, 182° | - | - |
| 1778068979 | 16.11° C | 77% | 1002.5 hPa | 0 mm | 2.68 m/s, 235° | - | - |
| 1778068679 | 16.11° C | 77% | 1002.5 hPa | 0 mm | 1.79 m/s, 178° | - | - |
| 1778068379 | 16.11° C | 77% | 1002.5 hPa | 0 mm | 1.34 m/s, 186° | - | - |
| 1778068079 | 16.11° C | 78% | 1002.5 hPa | 0 mm | 2.24 m/s, 188° | - | - |
| 1778067779 | 16.11° C | 78% | 1002.2 hPa | 0 mm | 2.68 m/s, 214° | - | - |
| 1778067479 | 16.11° C | 78% | 1002.2 hPa | 0 mm | 0.89 m/s, 181° | - | - |
| 1778067179 | 16.11° C | 77% | 1002.2 hPa | 0 mm | 0.89 m/s, 165° | - | - |
| 1778066879 | 16.11° C | 77% | 1002.5 hPa | 0 mm | 1.79 m/s, 205° | - | - |
| 1778066579 | 16.11° C | 77% | 1002.5 hPa | 0 mm | 1.34 m/s, 181° | - | - |
| 1778066279 | 16.11° C | 77% | 1002.5 hPa | 0 mm | 2.68 m/s, 187° | - | - |
| 1778065979 | 16.11° C | 77% | 1002.1 hPa | 0 mm | 0.89 m/s, 167° | - | - |
| 1778065679 | 16.11° C | 77% | 1002.1 hPa | 0 mm | 1.79 m/s, 179° | - | - |
| 1778065379 | 16.11° C | 77% | 1002.1 hPa | 0 mm | 3.13 m/s, 177° | - | - |
| 1778065079 | 16.11° C | 77% | 1002 hPa | 0 mm | 0.45 m/s, 191° | - | - |
* Rain latest hour (hover to see other rain measurements)
** Current wind speed in m/s (hover to see current wind gust speed)